Temperature
20 20 19 19 19 19 19 19 19 19 18 18 19 19 18 18 18 18 18 18 18 18 18 18 19 18 18 18 18 18 19 19 19 19 19 19 19 19 19 19 19 19 19
20 20 19 19 19 19 19 19 19 19 18 18 19 19 19 19 19 19 18 18 18 18 18 18 18 18 18 18 18 18 19 19 19 18 18 19 19 19 19 19 19 19 19
20 20 20 19 19 19 19 18 19 19 18 18 18 18 18 19 19 19 18 18 18 18 18 18 18 18 18 18 18 18 18 19 19 18 18 19 19 19 19 19 19 19 19
20 20 20 19 19 19 18 18 18 19 18 18 18 18 18 19 19 18 18 18 18 18 18 18 18 18 18 18 18 18 18 18 18 18 18 19 19 19 19 19 19 19 19
19 19 19 19 19 19 18 18 18 18 18 18 18 18 19 19 18 18 18 18 18 18 18 18 18 18 18 18 18 18 18 18 18 18 19 19 19 19 19 19 18 19 19
19 19 19 19 19 19 18 18 18 18 18 18 18 18 18 18 18 18 18 18 18 18 18 18 18 17 17 17 17 18 18 18 18 18 18 19 19 19 19 18 18 18 18
19 19 19 19 19 19 18 18 18 18 18 18 18 18 18 18 18 18 18 18 18 18 18 17 17 17 17 17 17 17 17 18 18 18 18 19 18 18 18 18 18 18 18
19 19 19 19 19 19 18 18 18 18 18 18 18 18 18 18 18 18 18 17 18 18 18 17 17 17 17 17 17 17 17 17 18 18 18 18 18 18 18 18 18 18 18
19 19 19 19 19 19 19 18 18 18 18 18 18 18 18 18 18 17 17 17 18 18 17 17 16 16 17 16 17 17 17 17 17 17 18 18 18 18 18 18 18 18 18
19 19 19 19 19 19 18 18 18 18 18 18 18 18 18 18 18 17 17 17 17 17 17 16 16 16 16 16 16 17 17 17 17 17 17 18 18 18 18 18 17 17 17
20 20 19 19 19 19 19 18 18 18 18 18 18 18 18 18 18 17 17 17 17 16 16 16 16 16 16 16 16 16 17 17 17 17 17 17 17 18 18 18 18 17 17
20 20 20 19 19 19 19 18 18 18 18 18 18 18 17 17 17 17 17 17 17 16 16 16 16 16 16 16 16 16 17 17 17 17 16 16 16 17 17 18 18 17 17
21 20 20 20 19 19 19 19 19 18 18 18 17 17 17 17 17 17 17 17 17 16 16 16 16 16 16 16 16 16 16 16 16 16 16 16 16 16 17 17 17 17 17
21 20 20 20 20 19 19 19 18 18 18 18 18 17 18 17 17 17 17 17 17 16 16 16 16 16 16 16 16 16 16 16 16 16 16 16 16 16 16 17 17 17 17
21 21 20 20 20 20 19 19 18 18 18 18 18 18 18 17 17 17 17 17 17 16 16 16 16 16 16 16 16 16 16 16 16 16 16 16 16 16 16 16 17 17 16
21 21 20 20 20 20 19 19 18 18 18 17 17 17 17 17 17 17 17 17 17 17 16 16 16 16 16 16 16 15 15 15 15 15 16 16 16 16 16 16 16 16 16
22 21 21 21 20 20 19 19 18 18 17 17 17 17 17 17 17 17 17 17 17 17 16 16 16 16 16 16 15 15 15 15 15 15 15 15 15 16 16 16 16 16 16
22 21 21 21 21 20 19 19 18 18 17 17 17 17 17 17 17 17 17 17 16 16 16 16 16 16 16 16 15 15 15 14 14 15 15 15 15 16 16 16 16 16 16
22 22 21 21 21 20 20 19 18 18 17 17 17 17 17 17 17 17 17 17 16 16 16 16 16 16 16 15 15 15 14 14 14 14 14 15 15 15 16 16 16 16 16
22 22 21 21 20 20 19 19 18 18 17 17 17 17 17 17 17 17 17 16 16 17 16 16 16 16 16 15 15 15 14 14 14 14 14 14 15 15 16 16 16 16 16
22 21 21 20 20 19 19 19 18 18 18 17 17 17 17 17 17 17 17 17 17 17 17 17 16 16 16 15 15 15 14 14 14 14 14 14 14 15 15 15 16 16 16
21 21 20 19 19 19 19 19 18 18 17 17 17 17 17 17 17 17 17 17 17 17 17 17 17 16 16 15 15 15 14 13 13 13 14 14 14 14 14 15 15 16 16
21 20 20 19 19 18 18 18 17 17 17 17 17 17 17 17 17 17 17 17 17 17 17 17 17 17 16 16 15 15 15 14 14 14 14 14 14 14 14 14 15 15 15
20 20 19 18 18 17 17 17 16 16 16 16 17 17 17 17 17 16 16 16 17 17 17 17 17 17 17 16 15 15 16 16 15 14 13 14 14 13 13 14 14 14 14
20 20 19 18 17 17 17 16 16 16 15 16 16 16 16 16 16 16 16 16 16 16 17 17 17 17 17 16 16 16 15 15 15 15 15 14 14 13 13 13 14 14 14
20 19 19 18 17 17 16 16 15 15 15 15 15 15 16 16 16 16 15 15 16 16 16 16 17 17 17 16 16 16 16 16 16 16 16 15 15 14 14 14 13 14 14
Wind_Speed
4 6 11 11 10 8 7 8 10 10 11 12 12 11 10 11 11 11 11 12 13 12 11 11 11 12 13 13 12 11 10 11 11 10 10 10 10 10 9 9 8 6 6
7 10 12 11 11 9 8 8 9 10 10 11 11 11 11 10 11 11 11 12 13 13 11 11 11 13 13 13 12 12 12 11 11 9 8 8 9 10 9 9 9 7 7
8 10 12 12 11 10 9 9 10 10 10 11 12 12 11 11 11 11 12 11 12 12 11 11 11 12 13 12 12 13 13 13 12 10 8 6 6 9 8 9 9 8 7
9 9 11 12 11 11 10 10 10 11 11 12 13 12 12 11 11 12 12 11 11 11 11 10 11 11 11 11 12 13 13 14 14 12 9 7 5 7 7 8 9 9 8
7 8 10 12 12 11 11 11 10 11 13 14 14 13 12 11 11 12 12 11 10 10 10 10 10 10 10 10 11 13 13 14 15 12 10 8 6 7 7 7 8 8 7
7 8 10 12 12 12 11 12 12 11 13 14 14 13 12 11 11 11 11 11 10 10 10 10 9 9 9 9 11 13 13 13 13 12 11 10 8 9 8 8 8 8 8
7 7 9 12 12 12 12 13 12 12 13 14 14 13 12 11 11 11 11 10 10 10 10 9 9 9 8 10 12 12 12 12 12 11 10 10 10 11 10 9 8 8 8
7 6 8 12 13 13 13 13 13 13 12 13 13 13 12 12 11 11 10 9 10 10 10 10 9 9 9 12 12 11 10 9 9 9 9 9 11 12 10 10 9 9 8
6 5 5 9 12 13 13 13 14 13 13 13 12 12 12 11 11 11 10 9 10 11 12 11 10 10 11 12 11 10 10 10 9 7 7 7 9 11 11 10 9 9 9
6 6 5 6 8 10 11 14 14 14 13 13 12 12 12 11 11 10 9 9 10 12 12 12 12 11 12 13 11 10 9 9 8 7 6 5 8 9 9 10 9 9 8
5 5 6 5 6 8 9 12 13 14 14 13 12 12 11 9 8 8 8 8 9 11 11 12 12 12 13 12 11 10 8 7 7 7 6 6 8 8 9 9 9 8 7
7 6 5 6 6 7 8 9 9 10 11 10 10 10 9 8 6 6 7 8 8 9 10 12 12 11 12 11 10 9 8 7 7 7 6 7 8 8 8 8 9 8 7
7 7 7 7 6 6 4 6 7 8 9 9 10 10 10 7 5 4 4 5 7 9 9 10 10 9 10 10 9 8 8 8 7 7 7 8 8 8 8 8 8 8 8
7 9 9 9 8 7 5 4 5 5 6 7 9 11 9 5 3 3 3 4 6 6 7 8 7 9 11 11 9 8 8 8 8 9 9 9 9 9 9 9 9 9 8
10 11 11 11 10 9 7 4 4 4 5 8 9 10 10 5 4 3 3 4 5 6 6 5 6 7 8 8 7 7 8 9 10 11 10 12 11 11 11 11 10 10 10
12 12 12 13 13 11 9 7 6 5 6 7 8 10 11 8 5 3 3 3 4 5 6 6 6 6 5 6 5 6 8 9 11 12 12 14 17 16 15 14 13 12 12
11 13 14 14 12 10 9 8 5 6 7 6 8 11 12 11 8 5 4 3 4 7 7 7 6 7 5 5 5 5 7 9 10 12 13 13 14 18 20 19 18 16 14
11 14 15 14 12 11 9 8 5 6 6 6 9 11 12 12 11 7 4 4 6 8 6 5 5 5 5 5 4 3 4 6 8 10 12 13 13 12 16 20 21 21 19
12 14 16 15 13 12 10 7 6 5 5 6 8 9 11 12 12 8 5 5 8 6 4 5 3 4 5 5 5 4 4 4 4 8 9 11 12 12 12 14 18 20 21
7 10 13 12 9 8 6 5 4 5 5 5 6 8 11 12 13 10 5 6 7 5 5 5 5 4 5 6 6 5 5 4 4 4 4 8 10 12 13 12 12 13 18
3 6 8 7 5 5 4 4 4 4 4 4 4 7 10 11 12 9 5 6 6 7 7 8 5 6 4 4 5 4 4 5 5 3 3 4 7 10 12 12 11 11 11
2 3 4 5 5 5 3 3 2 2 3 3 3 4 8 11 12 11 8 8 8 6 8 7 6 5 3 4 5 4 3 2 4 4 3 3 4 6 8 10 11 12 12
3 4 4 5 6 6 6 4 3 3 2 3 3 4 6 9 11 10 8 8 8 8 9 9 9 8 6 3 3 4 4 4 1 3 3 3 3 4 4 7 9 10 11
4 4 4 5 6 6 7 6 5 4 4 4 4 4 5 7 8 9 8 7 7 7 8 10 8 6 9 6 3 2 2 4 4 2 2 2 3 3 3 4 6 7 9
4 5 5 5 5 6 6 7 6 4 3 3 3 5 5 5 6 7 7 5 6 5 7 8 8 6 6 6 5 3 3 3 3 4 3 1 0 0 1 2 3 4 6
3 4 4 5 5 5 6 6 7 7 6 6 6 6 5 5 6 7 6 5 5 4 5 6 7 7 6 6 5 5 5 4 4 4 3 3 3 2 2 1 1 1 3
Wind_Direction
179 170 176 170 167 165 161 150 139 135 131 126 120 116 112 106 101 103 107 107 103 98 89 85 82 77 72 72 81 89 98 103 107 107 102 99 109 120 119 114 116 109 104
157 165 174 170 168 167 162 152 143 142 139 137 133 131 126 118 115 115 114 111 107 103 96 89 83 76 73 75 81 88 98 103 104 99 88 89 110 121 121 119 121 120 109
141 161 171 171 168 166 163 158 153 152 148 145 141 138 133 127 124 122 120 113 107 101 96 90 83 76 73 76 80 83 91 94 95 89 77 69 102 120 122 121 122 120 115
148 160 167 173 168 165 162 160 158 156 150 147 144 140 135 132 129 126 122 115 105 97 91 87 84 78 73 79 82 78 80 84 86 82 69 67 95 121 126 129 130 124 120
150 160 170 173 168 164 162 160 159 155 150 147 144 139 136 134 131 129 125 117 108 96 88 83 82 80 78 85 89 82 78 72 72 65 61 66 86 120 129 135 133 126 123
152 160 174 172 168 165 163 159 157 156 149 144 140 139 135 133 131 131 127 118 107 96 89 83 83 82 83 95 98 88 84 76 64 52 49 57 78 103 111 121 128 127 124
149 159 173 172 166 163 162 158 156 157 149 142 140 140 139 136 135 137 132 118 106 96 92 90 89 83 90 107 107 95 89 79 65 52 44 49 74 95 101 106 111 113 115
146 151 167 171 164 162 161 157 157 158 153 146 142 143 144 140 139 140 135 118 103 97 96 94 85 77 94 115 111 94 87 79 64 49 44 45 66 79 91 97 98 98 103
142 140 156 168 165 164 163 160 159 162 160 151 145 145 144 141 140 139 134 120 104 101 99 91 78 79 96 110 103 91 85 78 63 46 40 50 68 71 76 84 92 89 90
144 146 146 154 155 156 162 163 164 165 162 156 153 151 149 147 145 143 137 124 110 103 97 87 78 83 100 100 95 90 81 66 57 46 32 64 78 76 74 75 84 87 86
168 158 152 146 144 147 158 168 167 168 167 162 160 158 148 138 140 139 139 130 116 107 99 88 78 86 100 92 87 83 65 48 47 39 31 80 87 82 77 75 77 85 90
186 177 163 158 150 152 166 163 162 164 167 160 158 150 137 136 140 140 152 139 124 107 95 84 79 92 97 84 76 67 52 43 41 30 33 71 88 88 82 77 76 81 89
185 183 178 174 163 163 167 161 162 160 159 158 158 149 141 138 135 130 122 105 93 88 80 75 74 96 102 90 76 60 48 43 40 33 37 58 75 86 88 85 81 79 82
177 187 185 184 178 177 175 172 171 166 165 165 164 157 147 141 140 139 135 119 98 88 79 67 74 103 104 93 82 65 50 42 38 35 41 57 68 76 82 84 83 81 82
188 190 191 193 190 185 180 175 176 183 181 173 164 164 160 154 159 154 149 132 112 99 87 77 89 106 106 98 86 77 62 49 44 41 41 58 67 73 77 79 80 80 79
196 193 194 200 200 190 185 182 180 185 188 175 169 170 170 171 170 163 161 145 129 119 107 100 108 108 107 109 93 82 74 63 53 48 44 49 58 64 69 70 72 74 76
197 195 198 204 202 194 187 184 177 182 189 185 178 176 177 182 183 178 176 164 147 137 124 110 105 102 103 104 96 83 80 72 62 54 49 48 50 54 59 61 61 63 65
197 198 204 206 200 195 187 179 171 176 188 196 185 179 182 189 191 182 184 182 162 149 139 128 126 107 108 112 104 82 76 77 68 67 63 56 51 48 48 53 53 52 53
206 201 202 204 198 193 182 175 173 170 187 197 188 179 184 190 193 185 189 182 170 158 149 149 135 129 125 121 109 78 61 62 67 81 71 62 57 54 51 49 51 48 46
207 199 201 202 194 176 164 160 167 178 191 194 193 187 181 186 191 190 189 177 169 162 157 152 140 120 124 129 109 81 59 63 65 71 75 71 66 63 61 57 52 46 45
164 181 190 187 162 146 145 160 177 197 196 197 201 195 187 184 187 190 189 175 171 176 169 152 136 126 124 129 103 85 55 60 62 44 52 72 72 72 69 63 60 56 46
163 166 161 154 137 147 143 138 155 160 176 174 175 191 194 191 189 194 190 185 178 168 160 163 147 135 139 156 131 118 95 43 36 34 47 68 62 63 64 61 61 58 53
187 185 170 153 144 144 139 119 101 92 95 135 175 194 200 194 190 189 187 179 177 173 180 180 167 152 156 174 149 142 149 182 141 28 37 52 54 46 47 54 56 55 55
200 181 174 165 159 156 151 156 164 171 182 189 178 186 192 192 189 188 182 175 181 186 187 188 180 164 157 163 138 102 131 147 143 120 26 40 67 57 39 46 45 50 55
185 174 177 175 173 162 160 162 162 167 173 156 150 159 167 173 172 168 164 164 183 193 190 188 179 169 161 162 157 144 113 81 106 135 163 197 49 69 74 53 36 34 45
191 174 170 175 179 168 170 172 177 180 174 163 162 161 157 152 146 144 140 144 161 175 183 185 183 178 172 165 162 158 158 157 164 147 149 171 198 210 170 141 94 29 35
Height
1505 1507 1509 1511 1513 1515 1517 1518 1520 1521 1523 1524 1525 1527 1528 1528 1529 1530 1530 1531 1531 1531 1531 1531 1530 1530 1530 1530 1530 1530 1531 1532 1532 1533 1534 1535 1535 1536 1536 1536 1536 1536 1537
1506 1508 1510 1512 1514 1515 1517 1518 1520 1521 1523 1524 1525 1527 1528 1528 1529 1530 1531 1531 1532 1532 1532 1532 1532 1531 1531 1531 1531 1531 1532 1533 1534 1534 1535 1536 1536 1537 1537 1538 1538 1538 1538
1506 1508 1510 1512 1514 1516 1517 1519 1520 1521 1523 1524 1525 1527 1528 1529 1530 1530 1531 1532 1533 1533 1533 1533 1533 1533 1533 1533 1533 1533 1533 1534 1535 1535 1536 1537 1537 1538 1538 1539 1539 1539 1539
1507 1509 1511 1513 1514 1516 1517 1519 1520 1521 1523 1524 1526 1527 1529 1530 1530 1531 1532 1533 1534 1534 1534 1534 1534 1534 1535 1535 1535 1535 1535 1535 1535 1536 1537 1537 1538 1538 1539 1540 1540 1540 1540
1508 1509 1511 1513 1515 1516 1518 1519 1521 1522 1523 1525 1526 1528 1529 1530 1531 1533 1533 1534 1534 1535 1535 1535 1535 1536 1536 1537 1537 1537 1537 1537 1537 1537 1537 1538 1538 1539 1540 1540 1541 1541 1541
1508 1510 1511 1513 1514 1516 1518 1519 1521 1523 1524 1525 1527 1528 1529 1531 1532 1534 1535 1535 1535 1536 1536 1536 1537 1538 1538 1539 1539 1539 1539 1539 1538 1539 1539 1539 1539 1539 1540 1540 1541 1541 1542
1508 1510 1511 1513 1514 1516 1518 1519 1521 1523 1525 1526 1527 1529 1530 1532 1533 1535 1536 1536 1536 1537 1537 1538 1538 1539 1540 1541 1541 1541 1541 1540 1540 1540 1540 1540 1540 1540 1540 1541 1541 1542 1542
1508 1510 1511 1513 1514 1516 1518 1520 1521 1523 1525 1527 1528 1530 1531 1532 1534 1535 1536 1537 1537 1538 1538 1539 1540 1541 1542 1542 1542 1542 1542 1542 1541 1541 1542 1541 1541 1541 1541 1542 1542 1542 1543
1509 1510 1511 1513 1514 1516 1518 1520 1521 1523 1526 1528 1529 1531 1532 1533 1535 1536 1537 1538 1539 1539 1539 1540 1541 1543 1543 1543 1544 1544 1543 1542 1542 1542 1542 1542 1542 1543 1543 1543 1543 1543 1544
1509 1510 1511 1513 1515 1516 1518 1520 1522 1523 1526 1528 1529 1531 1533 1534 1535 1537 1538 1539 1540 1540 1541 1542 1543 1544 1545 1545 1545 1544 1544 1543 1543 1543 1543 1543 1543 1544 1544 1544 1544 1544 1545
1509 1510 1512 1513 1515 1516 1518 1520 1522 1524 1526 1528 1529 1532 1533 1535 1536 1538 1539 1540 1541 1542 1543 1544 1545 1546 1546 1546 1546 1545 1544 1544 1544 1544 1544 1544 1544 1544 1544 1544 1545 1545 1545
1509 1510 1512 1514 1515 1517 1518 1520 1521 1523 1525 1527 1529 1531 1533 1535 1537 1538 1540 1541 1542 1544 1545 1546 1547 1548 1548 1548 1547 1546 1546 1545 1545 1545 1545 1545 1545 1545 1545 1545 1545 1546 1546
1509 1510 1512 1513 1515 1516 1518 1519 1521 1522 1524 1526 1528 1530 1533 1534 1536 1538 1540 1541 1543 1545 1546 1547 1548 1549 1550 1549 1549 1548 1547 1547 1547 1547 1546 1546 1546 1546 1546 1546 1546 1547 1547
1508 1509 1511 1512 1514 1515 1517 1518 1520 1522 1523 1525 1527 1529 1532 1534 1536 1537 1540 1542 1544 1546 1547 1549 1550 1551 1551 1551 1550 1549 1549 1549 1548 1548 1548 1548 1548 1547 1547 1547 1547 1547 1547
1506 1508 1509 1511 1512 1514 1515 1517 1518 1520 1523 1524 1526 1529 1531 1533 1535 1537 1540 1542 1544 1546 1548 1549 1551 1551 1552 1552 1551 1551 1551 1551 1550 1550 1549 1549 1549 1549 1549 1549 1549 1549 1548
1503 1506 1508 1509 1509 1511 1513 1515 1517 1519 1522 1524 1525 1528 1530 1533 1535 1537 1540 1542 1544 1546 1548 1550 1551 1552 1552 1553 1553 1553 1553 1553 1552 1552 1552 1551 1551 1551 1551 1550 1550 1550 1549
1501 1503 1505 1507 1508 1509 1511 1514 1515 1517 1520 1522 1524 1526 1529 1532 1534 1537 1540 1542 1544 1546 1548 1550 1551 1552 1553 1554 1554 1554 1554 1555 1555 1554 1554 1553 1553 1553 1552 1552 1552 1551 1551
1498 1499 1502 1504 1505 1507 1509 1512 1514 1516 1518 1520 1522 1525 1527 1530 1533 1536 1539 1541 1544 1546 1548 1550 1551 1552 1554 1555 1555 1556 1556 1556 1556 1556 1556 1555 1555 1554 1554 1554 1553 1553 1553
1494 1495 1497 1500 1502 1504 1507 1509 1512 1514 1516 1518 1520 1522 1525 1528 1532 1534 1537 1540 1542 1544 1546 1549 1550 1552 1553 1555 1556 1557 1557 1557 1558 1557 1557 1557 1556 1556 1555 1555 1555 1554 1554
1490 1491 1492 1495 1499 1502 1505 1507 1509 1511 1513 1516 1518 1520 1523 1526 1529 1532 1535 1537 1540 1542 1544 1546 1549 1551 1553 1555 1556 1557 1558 1558 1559 1559 1558 1558 1558 1557 1556 1556 1556 1556 1555
1487 1487 1488 1492 1496 1499 1502 1504 1506 1508 1510 1512 1515 1517 1520 1523 1526 1529 1532 1534 1537 1539 1541 1544 1547 1549 1551 1553 1555 1557 1558 1559 1559 1559 1559 1559 1559 1559 1558 1557 1557 1557 1556
1485 1485 1487 1489 1492 1496 1498 1501 1503 1505 1507 1509 1511 1514 1516 1519 1522 1525 1528 1531 1534 1536 1538 1541 1544 1546 1549 1551 1553 1555 1557 1559 1559 1559 1559 1560 1560 1560 1559 1559 1558 1558 1557
1483 1484 1485 1487 1489 1492 1495 1497 1498 1500 1502 1505 1507 1509 1512 1514 1517 1520 1524 1527 1531 1533 1535 1538 1540 1543 1546 1549 1551 1553 1554 1555 1557 1558 1558 1559 1559 1560 1560 1559 1559 1559 1558
1482 1482 1483 1485 1487 1489 1491 1493 1494 1495 1497 1500 1502 1504 1507 1509 1512 1515 1519 1523 1526 1529 1532 1535 1537 1540 1543 1545 1548 1550 1552 1553 1554 1556 1557 1558 1559 1559 1559 1559 1559 1560 1559
1481 1481 1482 1483 1485 1486 1488 1489 1490 1492 1494 1496 1498 1500 1502 1504 1507 1510 1514 1517 1522 1525 1528 1531 1534 1537 1539 1542 1544 1547 1549 1551 1552 1554 1555 1556 1557 1558 1558 1559 1559 1559 1559
1480 1481 1481 1482 1483 1484 1486 1487 1488 1489 1491 1492 1494 1496 1497 1499 1502 1505 1509 1513 1517 1521 1524 1527 1530 1533 1536 1539 1542 1544 1546 1549 1550 1552 1553 1554 1555 1556 1557 1557 1558 1558 1558